SL-14 R/B

Satellite information

Favourite Embed

Satellite Type and Status

ROCKET BODYIN ORBIT

Key statistics

Satellite SL-14 R/B at a glance.

Uptime

14402

Days in orbit

Revolutions

≈ 13.8

Per day

Orbit

LEO

Low Earth Orbit

Inclination

82.5

Latest

Satellite identification and parameters

Extended collection of information and parameters for SL-14 R/B.

Object identification

Identified? True

Debris? False

Object name: SL-14 R/B

International designator: 1986-039B

Object number (NORAD): 16736

Object ID (CCSDS): 16736

Country: COMMONWEALTH OF INDEPENDENT STATES (CIS)

Current information (Y/N): Y

RCS size: LARGE

Orbital parameters

Period: 103.983 minutes

Inclination: 82.5342 deg

SMA: 7324.878 km

Apoapsis: 956.696 km

Periapsis: 936.791 km

RAAN: 114.0756 deg

Eccentricy: 0.00135867

Argument of periapsis: 147.6993 deg

Mean anomaly: 212.5003 deg

Mean motion: 13.84848055 rev/day

Mean motion (dot): 0.00000057 rev/day2

B* drag term: 0.000036851906 1/REarth

Two-line elements (TLE)

Creation date: Oct. 30, 2025, 3:32 a.m.

Reference frame: TEME

Reference center: EARTH

Epoch: Oct. 29, 2025, 8:16 p.m. UTC

TLE line 0: 0 SL-14 R/B

TLE line 1: 1 16736U 86039B 25302.84462113 .00000057 00000-0 36852-4 0 9990

TLE line 2: 2 16736 82.5342 114.0756 0013587 147.6993 212.5003 13.84848055992476

Live tracking on map

Real-time ground track for satellite SL-14 R/B.

In-orbit conjunctions

A list of the most updated potential collisions computed for object SL-14 R/B.

Target Orbit TCA Probability of collision Miss distance Type
FENGYUN 1C DEB SSO 2025-08-02 08:25:27 0.0005492523 280.0 (m) DEBRIS
SL-8 R/B LEO 2025-05-17 03:45:52 0.0001029715 202.0 (m) ROCKET BODY
THOR ABLESTAR DEB LEO 2025-03-13 17:06:13 0.0004468406 595.0 (m) DEBRIS
COSMOS 1275 DEB LEO 2024-11-13 00:08:51 0.0001186303 772.0 (m) DEBRIS
TEMISAT LEO 2024-09-07 20:43:17 0.00434994 93.0 (m) PAYLOAD

Associated space launch

Second generation soviet meteorological satellite

SL-14 R/B was lifted into orbit during the mission ‘Tsiklon-3 | Meteor-2 14’, on board a Tsiklon-3 space rocket.

The launch took place on May 27, 1986, 9:30 a.m. from 32/1.

For more information about the launch, click the button.

Launch to space Tsiklon-3 | Meteor-2 14
Tsiklon-3 | Meteor-2 14

Agency: N/A

Status: Launch Successful

Launch date: May 27, 1986, 9:30 a.m. UTC

Rocket: Tsiklon-3

Launch pad: 32/1

Location: Plesetsk Cosmodrome, Russian Federation

...

Latest news about this satellite

There are no fresh news available about this satellite. Check back as we update our databases every day.


Newsletter sign-up

Weekly statistics, charts and insights to help you stay on top of the space industry.